Weather History for South St. Paul, MN

Change the Weather History Date:

Friday, February 1, 2013

  Actual Average (KMSP) Record (KMSP)
Temperature  
Mean Temperature -2 °F 17 °F  
Max Temperature 5 °F 25 °F 54 °F (1931)
Min Temperature -9 °F 9 °F -28 °F (1951)
Degree Days  
Heating Degree Days 67 48  
Month to date heating degree days 48  
Since 1 July heating degree days 4602  
Cooling Degree Days 0 0  
Month to date cooling degree days 0  
Year to date cooling degree days 0  
Moisture  
Dew Point -10 °F    
Average Humidity 67    
Maximum Humidity 82    
Minimum Humidity 50    
Precipitation  
Precipitation 0.01 in 0.02 in 0.89 in (1922)
Month to date precipitation 0.02  
Year to date precipitation 0.92  
Snow  
Snow 0.00 in 0.30 in 4.30 in (1899)
Month to date snowfall 0.3  
Since 1 July snowfall 34.3  
Snow Depth -    
Sea Level Pressure  
Sea Level Pressure 30.20 in    
Wind  
Wind Speed 6 mph (West)    
Max Wind Speed 12 mph    
Max Gust Speed 16 mph    
Visibility 8 miles    
Events Snow    
T = Trace of Precipitation, MM = Missing Value Source: NWS Daily Summary

Daily Weather History Graph

Daily Weather History Graph

Search for Another Location

Airport:

Trip Planner

Search our weather history database for the weather conditions in past years. The results will help you decide how hot, cold, wet, or windy it might be!

Date:

Astronomy

Feb. 01, 2013 Rise Set
Actual Time 7:31 AM CST 5:20 PM CST
Civil Twilight 7:00 AM CST 5:52 PM CST
Nautical Twilight 6:25 AM CST 6:27 PM CST
Astronomical Twilight 5:50 AM CST 7:01 PM CST
Moon 11:47 PM CST (2/1) 9:47 AM CST (2/1)
Length of Visible Light 10h 51m
Length of Day
9h 49m
Waning Gibbous, 70% of the Moon is Illuminated
Feb 1
Waning Gibbous
Feb 3
Last Quarter
Feb 10
New
Feb 17
First Quarter
Feb 25
Full

Hourly Weather History & Observations

Time (CST) Temp. Windchill Dew Point Humidity Pressure Visibility Wind Dir Wind Speed Gust Speed Precip Events Conditions
12:12 AM -5.1 °F -20.4 °F -15.0 °F 62% 30.26 in 10.0 mi WNW 8.1 mph - N/A   Clear
12:32 AM -5.1 °F -21.5 °F -15.2 °F 62% 30.27 in 10.0 mi WNW 9.2 mph - N/A   Clear
12:52 AM -5.4 °F -23.0 °F -15.7 °F 61% 30.27 in 10.0 mi WNW 10.4 mph - N/A   Clear
1:12 AM -5.8 °F -24.4 °F -15.7 °F 62% 30.28 in 10.0 mi WNW 11.5 mph - N/A   Clear
1:32 AM -6.0 °F -24.6 °F -15.9 °F 62% 30.28 in 10.0 mi WNW 11.5 mph - N/A   Clear
1:52 AM -6.2 °F -21.7 °F -15.9 °F 63% 30.28 in 10.0 mi WNW 8.1 mph - N/A   Clear
2:12 AM -6.7 °F -23.5 °F -16.1 °F 64% 30.29 in 10.0 mi WNW 9.2 mph 16.1 mph N/A   Clear
2:32 AM -6.7 °F -22.3 °F -15.9 °F 64% 30.29 in 10.0 mi West 8.1 mph - N/A   Clear
2:52 AM -7.1 °F -22.8 °F -16.1 °F 65% 30.28 in 10.0 mi WNW 8.1 mph - N/A   Clear
3:12 AM -7.2 °F -20.1 °F -16.1 °F 65% 30.29 in 10.0 mi WNW 5.8 mph - N/A   Clear
3:32 AM -7.6 °F -23.4 °F -16.1 °F 67% 30.29 in 10.0 mi WNW 8.1 mph - N/A   Clear
4:12 AM -8.1 °F -19.4 °F -16.2 °F 68% 30.30 in 10.0 mi West 4.6 mph - N/A   Clear
4:32 AM -8.3 °F -23.0 °F -16.4 °F 68% 30.30 in 10.0 mi West 6.9 mph - N/A   Clear
4:52 AM -8.5 °F -19.8 °F -16.6 °F 68% 30.30 in 10.0 mi West 4.6 mph - N/A   Clear
5:12 AM -8.5 °F -23.2 °F -16.6 °F 68% 30.30 in 10.0 mi West 6.9 mph - N/A   Clear
5:32 AM -8.5 °F -19.8 °F -16.8 °F 67% 30.31 in 10.0 mi West 4.6 mph - N/A   Clear
5:52 AM -8.5 °F -19.8 °F -17.0 °F 67% 30.31 in 10.0 mi West 4.6 mph - N/A   Clear
6:12 AM -8.7 °F -23.4 °F -16.8 °F 68% 30.31 in 10.0 mi West 6.9 mph - N/A   Clear
6:32 AM -8.7 °F -21.9 °F -17.0 °F 67% 30.31 in 10.0 mi West 5.8 mph - N/A   Clear
6:52 AM -8.9 °F -20.2 °F -17.1 °F 67% 30.31 in 10.0 mi WNW 4.6 mph - N/A   Clear
7:12 AM -8.9 °F -22.1 °F -17.5 °F 66% 30.31 in 10.0 mi WNW 5.8 mph - N/A   Clear
7:32 AM -9.0 °F -20.4 °F -17.7 °F 66% 30.30 in 10.0 mi WNW 4.6 mph - N/A   Clear
7:52 AM -9.4 °F -18.6 °F -17.5 °F 68% 30.30 in 10.0 mi West 3.5 mph - N/A   Clear
8:12 AM -9.4 °F - -17.1 °F 69% 30.30 in 10.0 mi Calm Calm - N/A   Clear
8:32 AM -8.7 °F -17.8 °F -16.6 °F 68% 30.29 in 10.0 mi West 3.5 mph - N/A   Clear
9:12 AM -7.8 °F -16.7 °F -15.9 °F 68% 30.28 in 10.0 mi WSW 3.5 mph - N/A   Clear
9:32 AM -7.2 °F -20.1 °F -16.4 °F 64% 30.28 in 10.0 mi West 5.8 mph - N/A   Clear
9:52 AM -6.9 °F - -16.2 °F 64% 30.27 in 10.0 mi Calm Calm - N/A   Clear
10:12 AM -6.0 °F -14.7 °F -15.9 °F 62% 30.27 in 10.0 mi West 3.5 mph - N/A   Clear
10:32 AM -5.1 °F -13.6 °F -15.9 °F 60% 30.27 in 10.0 mi SW 3.5 mph - N/A   Clear
10:52 AM -4.7 °F -17.2 °F -15.9 °F 59% 30.27 in 10.0 mi SW 5.8 mph - N/A   Clear
11:12 AM -4.0 °F - -16.1 °F 56% 30.27 in 10.0 mi Calm Calm - N/A   Clear
11:32 AM -2.6 °F -14.6 °F -15.0 °F 56% 30.26 in 10.0 mi SSW 5.8 mph - N/A   Clear
12:12 PM -1.3 °F -13.1 °F -14.6 °F 53% 30.24 in 10.0 mi West 5.8 mph - N/A   Clear
12:32 PM -0.4 °F -13.4 °F -14.3 °F 52% 30.23 in 10.0 mi West 6.9 mph - N/A   Clear
12:52 PM 0.3 °F -7.5 °F -14.1 °F 51% 30.23 in 10.0 mi West 3.5 mph - N/A   Clear
1:12 PM 0.5 °F - -14.1 °F 50% 30.22 in 10.0 mi Calm Calm - N/A   Scattered Clouds
1:32 PM 1.2 °F -8.5 °F -13.0 °F 51% 30.20 in 10.0 mi SSW 4.6 mph - N/A   Mostly Cloudy
1:52 PM 1.8 °F -7.8 °F -12.8 °F 51% 30.19 in 10.0 mi SSW 4.6 mph - N/A   Mostly Cloudy
2:12 PM 2.1 °F -10.4 °F -12.1 °F 52% 30.17 in 10.0 mi South 6.9 mph - N/A   Scattered Clouds
2:32 PM 2.3 °F -7.2 °F -11.6 °F 52% 30.17 in 10.0 mi SSE 4.6 mph - N/A   Clear
2:52 PM 2.5 °F -7.0 °F -11.0 °F 53% 30.16 in 10.0 mi SSW 4.6 mph - N/A   Mostly Cloudy
3:12 PM 3.0 °F -8.0 °F -11.2 °F 52% 30.15 in 10.0 mi SSW 5.8 mph - N/A   Overcast
3:32 PM 3.2 °F -9.1 °F -10.7 °F 53% 30.14 in 10.0 mi South 6.9 mph - N/A   Overcast
3:52 PM 3.7 °F - -8.7 °F 56% 30.13 in 10.0 mi Calm Calm - N/A   Scattered Clouds
4:12 PM 3.9 °F -3.4 °F -7.8 °F 58% 30.12 in 7.0 mi SE 3.5 mph - N/A Snow Light Snow
4:32 PM 3.9 °F - -6.0 °F 64% 30.12 in 2.0 mi Calm Calm - N/A Snow Light Snow
4:52 PM 3.9 °F - -4.4 °F 69% 30.11 in 2.0 mi Calm Calm - N/A Snow Light Snow
5:12 PM 3.9 °F - -3.3 °F 72% 30.11 in 2.0 mi Calm Calm - N/A Snow Light Snow
5:32 PM 4.1 °F - -2.4 °F 75% 30.11 in 3.0 mi Calm Calm - N/A Snow Light Snow
5:52 PM 4.1 °F - -1.8 °F 76% 30.11 in 2.5 mi Calm Calm - N/A Snow Light Snow
6:12 PM 4.1 °F - -1.3 °F 78% 30.10 in 1.8 mi Calm Calm - N/A Snow Light Snow
6:32 PM 4.1 °F - -0.8 °F 80% 30.10 in 2.0 mi Calm Calm - N/A Snow Light Snow
6:52 PM 4.1 °F - -0.6 °F 81% 30.10 in 1.5 mi Calm Calm - N/A Snow Light Snow
7:12 PM 4.1 °F - -0.4 °F 82% 30.09 in 2.5 mi Calm Calm - N/A Snow Light Snow
7:32 PM 4.1 °F - -0.4 °F 82% 30.09 in 1.8 mi Calm Calm - N/A Snow Light Snow
7:57 PM 4.5 °F - -0.4 °F 80% 30.07 in 3.0 mi Calm Calm - 0.01 in Snow Light Snow
8:12 PM 4.6 °F - -0.0 °F 81% 30.07 in 3.0 mi Calm Calm - N/A Snow Light Snow
8:32 PM 4.5 °F -2.7 °F -0.4 °F 80% 30.08 in 5.0 mi ENE 3.5 mph - N/A Snow Light Snow
8:52 PM 5.0 °F - -0.0 °F 80% 30.07 in 7.0 mi Calm Calm - N/A Snow Light Snow
9:12 PM 5.0 °F - 0.1 °F 80% 30.07 in 10.0 mi Calm Calm - N/A   Overcast
9:32 PM 5.5 °F - 0.5 °F 80% 30.06 in 10.0 mi Calm Calm - N/A   Overcast
9:52 PM 5.5 °F - 0.7 °F 80% 30.06 in 10.0 mi Calm Calm - N/A   Overcast
10:12 PM 5.5 °F -1.5 °F 0.9 °F 81% 30.06 in 10.0 mi ENE 3.5 mph - N/A   Overcast
10:32 PM 5.5 °F -1.5 °F 0.9 °F 81% 30.05 in 10.0 mi ENE 3.5 mph - N/A   Overcast
10:52 PM 5.5 °F -1.5 °F 1.0 °F 82% 30.05 in 7.0 mi NE 3.5 mph - N/A   Overcast
11:12 PM 5.7 °F - 1.2 °F 82% 30.05 in 7.0 mi Calm Calm - N/A   Overcast
11:32 PM 5.9 °F - 1.4 °F 82% 30.05 in 10.0 mi Calm Calm - N/A   Overcast
11:52 PM 5.9 °F - 1.4 °F 82% 30.05 in 7.0 mi Calm Calm - N/A Snow Light Snow